Theta_e
349 350 349 350 355 357 356 356 355 353 351 351 352 353 353 353 353 353 353 354 354 352 352 352 351 349 346 347 348 349 349 350 352 353 352 352 353 352 353 353 351 350
354 353 349 350 354 356 356 356 354 352 352 351 351 351 352 352 352 352 352 352 353 353 354 353 351 348 342 342 347 348 345 343 345 348 351 350 349 350 350 350 350 348
354 355 354 355 356 353 354 355 354 353 351 350 350 351 352 352 352 352 352 352 352 353 354 354 353 351 346 345 350 352 350 348 347 348 348 347 347 349 350 351 352 351
355 357 357 357 357 355 354 355 355 353 351 351 350 350 351 352 353 354 353 352 352 352 353 354 354 355 353 351 351 351 352 353 353 350 346 344 345 346 347 348 348 347
357 357 358 356 357 357 355 355 354 353 352 351 351 350 350 350 352 353 354 354 353 353 353 353 354 355 356 356 354 351 350 351 351 349 346 345 344 344 344 344 343 343
358 357 356 355 356 356 355 353 353 353 352 351 350 350 350 349 349 350 352 354 354 353 353 353 353 354 354 355 354 351 349 348 348 351 351 349 347 345 346 347 349 349
357 356 354 355 355 354 354 353 352 353 353 351 351 349 349 349 349 350 350 352 353 353 353 353 353 354 354 354 354 353 350 349 348 350 351 350 348 346 345 346 349 349
350 349 350 354 356 354 354 353 353 353 353 352 351 350 350 349 349 350 350 350 351 351 351 352 352 353 353 354 355 355 353 351 348 348 350 350 349 347 345 345 347 347
348 347 348 353 356 354 354 354 353 353 352 351 351 351 351 351 350 350 350 350 350 350 350 351 352 351 351 353 354 354 352 351 348 349 351 352 351 349 348 348 349 349
351 351 353 355 356 354 353 352 352 352 352 352 352 353 353 352 351 351 351 351 350 350 351 353 353 352 352 351 351 350 350 349 347 348 349 350 351 350 350 351 351 351
350 350 352 354 356 356 355 353 353 352 352 352 352 352 353 353 352 352 351 352 352 352 352 352 353 353 352 351 349 347 347 348 347 347 347 347 347 347 347 348 348 349
347 348 349 350 354 355 355 354 354 352 352 350 351 352 353 353 354 353 353 353 353 353 353 353 352 351 350 349 348 348 349 348 348 348 347 347 346 346 346 346 347 348
343 346 348 349 351 352 352 354 355 353 351 348 348 351 352 353 354 354 353 353 353 352 352 351 350 349 349 349 348 349 350 349 348 348 348 348 348 348 348 348 348 349
344 346 348 349 350 350 352 354 353 352 351 348 348 350 352 354 354 353 352 352 352 351 350 349 347 346 347 349 349 350 350 349 349 349 349 348 349 349 348 348 348 348
346 347 349 349 350 350 351 353 353 352 352 349 348 351 353 352 352 352 351 351 351 350 350 349 348 346 346 349 350 350 350 350 350 349 349 349 348 349 348 347 347 346
346 347 348 349 349 350 349 349 350 350 348 347 348 351 351 350 351 351 351 351 351 351 351 352 352 350 349 349 349 350 350 349 350 349 349 348 347 347 346 346 346 345
346 346 347 347 348 349 348 347 347 347 347 349 349 350 350 351 352 352 351 352 352 353 352 353 352 351 350 350 350 349 349 349 349 349 348 347 347 347 346 346 346 346
345 345 346 347 347 348 349 349 349 350 351 351 349 349 349 351 352 351 352 353 353 353 352 350 349 349 350 350 349 348 348 349 349 348 347 347 347 347 346 345 345 345
346 346 346 346 347 347 350 352 354 353 353 351 351 351 350 349 349 351 352 353 352 351 349 348 348 349 349 349 347 345 345 345 346 347 347 346 346 346 345 345 345 345
346 346 346 346 346 346 348 353 355 354 353 352 351 351 350 349 350 352 353 351 349 348 348 348 348 347 346 346 345 343 343 343 345 347 347 346 346 346 345 343 342 340
346 347 346 346 346 347 350 354 354 354 353 352 350 350 350 350 351 352 352 350 349 349 350 350 348 345 344 344 344 343 344 344 346 346 345 344 344 344 343 340 339 338
347 347 347 348 350 352 354 354 352 351 352 351 351 351 351 351 351 352 351 349 348 349 349 349 348 344 343 344 343 344 345 345 345 345 344 343 343 343 341 339 338 339
351 352 351 352 354 354 352 350 350 351 353 352 352 351 350 351 352 351 350 349 348 348 349 348 345 343 344 344 343 343 343 343 343 343 343 343 342 342 340 339 339 340
356 355 354 353 353 351 349 348 350 353 354 353 353 353 351 350 351 350 350 350 348 349 349 347 344 344 343 340 338 339 340 341 343 344 344 343 342 341 341 340 340 340
355 355 355 354 354 352 351 350 351 351 352 352 353 352 351 350 350 349 349 349 348 349 349 346 343 341 339 336 337 339 343 344 345 345 344 343 341 340 340 340 340 338
352 352 353 354 355 353 351 352 351 351 352 353 352 351 349 349 348 348 349 348 348 348 346 343 340 338 337 337 338 340 342 344 344 343 341 340 339 339 340 341 340 338
Wind_Speed
21 22 23 22 21 18 16 16 15 15 15 15 14 14 14 14 13 11 12 15 15 12 12 15 16 16 16 16 15 16 16 14 13 12 11 11 13 12 12 14 14 13
21 21 21 21 20 19 18 16 15 15 15 15 14 13 13 14 14 13 12 13 13 13 14 15 15 14 14 13 13 13 14 14 15 13 11 12 13 13 13 14 14 13
20 20 19 19 18 19 18 16 15 15 15 15 15 14 13 13 14 14 14 13 12 11 13 15 14 12 11 11 11 11 11 11 12 11 12 15 15 16 15 13 12 13
19 18 18 17 17 17 16 15 15 15 15 14 15 14 14 13 13 14 15 15 14 12 12 14 14 12 11 10 12 13 12 12 13 13 14 15 15 17 18 17 17 16
19 19 19 18 16 16 16 17 17 16 15 15 14 15 15 14 13 14 14 15 16 14 13 14 14 13 12 12 13 13 13 14 15 15 15 14 14 16 18 19 20 20
20 20 18 17 17 17 16 17 18 17 15 15 14 14 14 15 15 14 14 14 16 14 13 13 14 14 13 13 15 14 13 14 14 13 15 16 16 16 16 17 18 19
20 20 19 18 18 17 16 15 15 15 14 15 15 15 14 15 15 15 15 15 15 15 14 14 15 15 15 15 16 15 13 14 14 14 16 17 18 18 18 17 17 19
21 21 22 20 18 17 17 15 13 14 16 16 15 16 15 15 15 15 15 15 15 16 16 15 15 16 16 17 18 17 15 15 15 15 15 17 18 19 18 18 18 18
22 21 22 21 20 18 17 16 15 17 18 17 16 15 14 16 15 13 15 16 16 16 15 14 15 15 16 17 18 18 17 17 17 16 15 15 17 18 18 17 18 18
23 22 22 23 22 20 18 19 20 21 20 19 19 17 15 16 16 14 16 17 17 17 17 15 16 16 15 16 17 17 17 17 17 17 17 17 18 19 19 18 18 18
25 25 26 26 25 23 23 24 24 23 21 20 20 19 18 18 18 17 19 19 17 18 19 19 18 17 17 17 18 18 18 17 18 18 19 20 20 20 21 20 20 19
24 26 28 28 28 29 29 27 26 25 24 22 21 21 20 19 19 20 20 19 18 17 17 16 16 16 18 19 19 18 17 18 19 19 20 20 20 20 20 20 18 17
24 27 28 28 30 31 30 27 28 27 25 23 23 23 21 20 20 20 19 19 18 17 15 13 13 15 17 18 18 17 17 18 18 19 19 18 17 19 18 16 15 14
25 27 28 29 29 29 28 28 29 29 25 23 22 22 21 20 20 19 19 19 18 16 14 12 13 15 16 17 18 17 16 17 16 16 16 14 14 15 14 13 12 11
25 26 27 27 26 26 27 27 28 27 25 22 22 22 20 19 18 17 17 16 15 14 12 11 12 14 15 16 16 15 13 13 12 11 12 11 11 10 10 10 9 9
26 26 26 25 25 24 25 25 26 25 22 20 20 20 18 17 16 15 14 13 13 12 12 10 11 12 12 12 12 11 11 9 7 7 8 8 8 7 7 7 7 8
26 26 24 24 24 23 22 22 22 20 18 15 15 16 17 16 14 13 12 11 11 11 11 10 9 8 7 8 8 8 7 6 4 4 5 5 5 6 6 6 7 8
27 26 24 23 23 22 20 18 16 14 13 12 13 15 15 13 11 11 10 10 10 10 10 9 7 5 5 6 6 4 4 4 3 3 4 4 5 5 6 6 6 6
30 29 27 26 24 21 18 15 13 12 11 11 11 12 11 9 10 10 9 9 9 9 8 6 4 4 4 4 4 2 3 4 3 1 3 4 4 4 4 4 5 5
30 30 29 27 26 22 18 14 12 11 10 10 10 9 9 9 9 9 8 9 8 7 6 4 3 3 3 3 3 2 2 3 1 1 2 3 3 4 4 4 4 5
26 26 26 25 22 19 16 12 9 8 9 9 9 10 10 9 8 8 8 8 7 6 6 4 3 3 3 3 2 2 3 4 3 4 5 5 5 5 5 5 5 6
23 23 22 19 15 13 11 9 7 7 8 9 9 10 10 9 8 8 8 8 8 7 6 4 3 3 3 3 3 4 5 6 7 6 4 2 3 5 5 6 6 8
19 18 15 12 11 10 9 9 11 10 10 9 9 10 9 9 10 10 9 9 8 6 4 4 4 4 4 4 5 5 5 7 7 4 1 1 5 7 8 8 8 10
12 12 11 10 11 11 10 10 11 11 11 10 10 10 10 10 11 11 10 9 8 6 5 4 5 5 6 6 6 6 5 7 7 4 2 5 6 6 8 9 10 12
7 7 8 10 12 12 9 8 9 11 11 11 12 12 12 13 12 12 11 10 8 7 5 5 5 7 7 7 7 6 6 6 5 4 4 5 3 2 6 9 10 11
6 7 9 11 13 12 10 9 10 11 12 13 13 13 13 14 13 11 10 9 8 6 5 5 6 6 7 7 6 6 5 4 2 3 3 2 2 4 5 9 11 12
Wind_Direction
214 213 213 210 206 205 204 206 207 203 206 209 213 215 215 223 231 230 225 224 231 232 218 220 227 227 225 223 225 228 228 227 230 236 246 251 256 259 259 259 257 259
212 213 215 214 210 207 204 206 211 210 212 211 213 218 216 217 222 225 231 231 229 227 222 225 231 235 236 229 228 240 243 240 235 234 242 250 255 259 261 265 268 269
211 212 212 210 212 212 206 207 212 212 215 215 214 216 215 215 217 218 220 227 235 233 226 231 239 246 243 225 221 235 247 255 250 238 238 243 245 249 253 259 267 269
209 210 210 208 210 212 209 210 215 214 214 216 217 218 217 216 217 216 215 217 227 235 234 232 233 239 244 228 221 227 231 243 251 247 249 250 249 251 254 257 262 265
212 211 211 209 207 209 213 213 212 213 215 216 217 218 219 221 219 220 223 221 219 221 227 233 232 232 238 233 234 241 239 241 250 259 266 266 260 262 265 269 274 275
215 215 216 216 211 211 219 217 208 208 214 217 220 221 221 224 224 224 227 227 226 223 222 231 236 234 237 240 247 255 254 253 258 264 270 274 275 277 277 276 277 279
216 218 221 223 217 214 220 219 209 210 216 215 217 221 222 225 227 226 227 230 236 235 229 229 230 231 236 243 251 259 263 266 266 262 264 273 280 284 284 279 275 276
218 218 218 219 216 216 219 218 213 215 219 215 215 218 221 224 227 227 230 232 236 242 247 245 239 237 239 240 247 259 270 275 274 270 270 275 280 284 284 282 279 279
218 218 216 213 212 214 216 216 215 215 214 211 212 218 221 223 224 227 233 232 229 236 247 250 246 244 244 243 248 260 269 273 274 273 271 273 280 284 283 281 280 279
214 212 209 208 209 209 211 216 217 215 210 205 205 208 214 220 218 221 232 233 226 225 228 234 242 248 252 255 260 265 267 269 270 271 270 268 270 273 274 275 276 277
212 212 209 207 206 207 210 214 218 218 214 211 208 204 208 217 217 217 226 230 229 229 230 234 243 255 262 265 266 267 267 269 269 270 271 268 267 269 272 275 276 278
208 211 211 209 207 209 213 214 216 219 218 217 216 212 211 217 219 222 228 233 237 241 242 243 247 258 266 267 267 268 269 270 271 271 271 270 272 275 275 277 279 281
206 206 207 208 208 210 214 214 215 218 219 217 218 218 216 219 224 231 238 243 247 250 252 255 257 260 264 265 267 268 270 273 276 278 277 277 279 281 279 279 281 283
202 202 203 206 208 210 212 212 213 216 220 220 220 221 221 224 232 242 246 246 247 249 252 258 261 261 261 262 265 270 273 276 278 280 282 284 285 284 282 281 281 285
198 199 201 203 207 210 211 213 214 217 223 227 226 226 227 231 237 243 243 240 242 249 255 256 257 260 263 265 272 280 278 276 279 285 290 292 289 284 280 281 287 293
201 201 202 203 206 209 211 213 216 220 224 226 226 228 231 232 233 234 235 240 250 259 263 258 251 258 270 276 282 285 279 275 284 296 300 299 294 293 293 294 301 304
204 203 203 205 206 207 209 209 213 217 216 213 216 224 227 227 230 237 243 248 255 260 258 256 252 254 272 280 276 271 267 267 277 285 291 298 304 313 318 319 316 314
208 208 207 209 207 206 207 208 207 205 200 201 211 221 225 229 240 251 254 250 251 252 250 252 250 241 249 255 250 238 219 209 216 252 284 303 313 315 321 333 333 329
215 216 217 217 214 211 211 207 199 192 192 200 212 220 226 235 240 241 245 246 243 244 243 237 224 223 234 232 218 190 171 179 194 280 313 320 326 330 334 340 336 337
216 220 223 222 219 217 215 209 197 189 190 194 203 215 218 221 220 215 221 230 227 222 221 207 194 213 226 210 193 177 162 163 166 353 356 353 357 6 355 325 320 334
214 216 218 219 219 216 210 203 193 187 185 184 196 209 206 205 209 205 207 212 205 192 191 191 201 215 209 198 188 166 144 128 93 52 42 32 17 11 349 314 317 339
214 214 214 214 209 199 191 192 203 204 191 184 193 203 201 197 194 190 193 196 189 185 190 202 224 217 193 181 166 150 142 121 90 64 52 44 10 4 352 332 335 346
219 211 205 198 188 185 197 220 227 212 187 179 189 197 197 189 179 177 183 187 182 179 190 215 220 196 164 158 154 149 149 130 114 119 170 53 24 10 1 351 346 342
224 204 188 185 190 198 211 223 219 198 178 176 181 181 179 175 172 173 174 175 176 173 179 195 191 167 150 150 147 140 140 134 133 146 110 59 41 11 352 344 338 333
222 207 190 188 192 197 201 203 202 192 181 175 170 167 167 167 169 172 168 167 171 174 172 172 166 154 145 140 137 136 136 134 134 123 92 79 78 25 349 332 324 325
199 203 203 200 195 192 190 192 195 188 174 166 164 165 167 165 166 168 164 160 164 165 162 156 151 147 141 136 140 147 140 129 114 93 84 69 65 57 3 316 308 317